Regional Weather Roundup
Issued by NWS State College, PA

Home | Current Version | Previous Version | Graphics & Text | Print | Product List | Glossary On
Versions: 1 2 3 4 5 6 7 8 9 10 11 12 13 14 15 16 17 18 19 20 21 22 23 24 25 26 27 28 29 30 31 32 33 34 35 36 37 38 39 40 41 42 43 44 45 46 47 48 49 50
000
ASUS41 KCTP 012210
RWRCTP

REGIONAL WEATHER ROUNDUP
NATIONAL WEATHER SERVICE STATE COLLEGE PA
600 PM EDT SAT OCT 01 2016

Note: "fair" indicates few or no clouds below 12,000 feet with no
significant weather and/or obstructions to visibility.

* = STATION THAT DOES NOT REPORT PRECIPITATION /E.G. RAIN...SNOW...ETC/
    THUNDER OR FOG.

PAZ002>004-007>009-013>016-020>023-029>032-012300-
WESTERN PENNSYLVANIA

CITY           SKY/WX    TMP DP  RH WIND       PRES   REMARKS
ERIE           CLOUDY    65  59  81 NE6       30.03S
MEADVILLE      LGT RAIN  61  59  93 SW5       30.04S FOG
FRANKLIN*        N/A     63  57  82 CALM      30.05S
NEW CASTLE     MOCLDY    66  60  81 SW3       30.04S
BEAVER COUNTY  NOT AVBL
BUTLER*        MOSUNNY   63  57  82 NE3       30.06S
PITTSBURGH INT MOSUNNY   68  58  70 W5        30.03R
PITTSBURGH     CLOUDY    65  59  81 SE12      30.03S
INDIANA*       CLEAR     66  59  77 S7G14     30.07R
LATROBE        PTSUNNY   68  59  73 S9        30.04S
WASHINGTON CO* SUNNY     68  55  64 SW3       30.04S
$$

PAZ004>006-010>012-017>019-024>028-033>037-041-042-045-046-049>053-012300-
CENTRAL PENNSYLVANIA

CITY           SKY/WX    TMP DP  RH WIND       PRES   REMARKS
BRADFORD       CLOUDY    59  58  96 SE6       30.09F
DUBOIS         CLOUDY    63  56  78 E7        30.06S
CLEARFIELD     CLOUDY    61  58  90 E7        30.08F
JOHNSTOWN      MOCLDY    60  56  86 SE10      30.08S
ALTOONA        CLOUDY    58  58 100 E6        30.10S
STATE COLLEGE  CLOUDY    57  57 100 CALM      30.10S FOG
WILLIAMSPORT   LGT RAIN  60  60 100 CALM      30.09S FOG
SELINSGROVE    LGT RAIN  60  60 100 CALM      30.11S FOG
FT INDIANTOWN  DRIZZLE   59  59 100 NE2       30.11S FOG
CAPITAL CITY   LGT RAIN  61  58  90 E3        30.10F FOG
HARRISBURG     CLOUDY    60  60 100 NE5       30.09S
YORK           CLOUDY    60  60 100 NE5       30.09F
$$

PAZ038>040-043-044-047-048-054-055-060>062-067>071-012300-
EASTERN PENNSYLVANIA

CITY           SKY/WX    TMP DP  RH WIND       PRES   REMARKS
SCRANTON       CLOUDY    61  56  83 NE8       30.10F
MOUNT POCONO   FOG       53  53 100 E9        30.14S VSB 1/4
ALLENTOWN      LGT RAIN  61  57  88 E5        30.13R
QUAKERTOWN*    CLOUDY    59  59 100 E6        30.13R
READING        CLOUDY    61  57  87 VRB5      30.10S
LANCASTER      LGT RAIN  61  61 100 E6        30.10S VSB 1
COATESVILLE    FOG       59  59 100 E7G15     30.11F VSB 1/2
POTTSTOWN      LGT RAIN  59  59 100 E6        30.12S FOG
BLUE BELL      CLOUDY    59  59 100 E6        30.11R
DOYLESTOWN     CLOUDY    61  59  93 VRB3      30.11F
WILLOW GROVE   NOT AVBL
NORTH PHILA    CLOUDY    63  60  90 NE10      30.13S
PHILADELPHIA   CLOUDY    63  60  90 NE8       30.11S
$$



USA.gov is the U.S. government's official web portal to all federal, state and local government web resources and services.